Location: Unspecified
(0.0000°N, 0.0000°E)
Time: 11:33:29
(UTC+00:00)

A-11 Canister half - Pass Details

Date: 10 August 2021
Orbit: 1515 x 1685 km, 47.2° (Epoch: 27 September)

Event Time Altitude Azimuth Distance (km) Brightness Sun altitude
Rises 21:51:18 0° 337° (NNW) 4,915 12.0 -53.6°
Reaches altitude 10° 21:54:51 10° 346° (NNW) 3,935 11.4 -54.3°
Enters shadow 21:56:49 16° 353° (N) 3,438 10.9 -54.8°
Maximum altitude 22:03:54 37° 49° (NE) 2,419 - -56.4°
Drops below altitude 10° 22:12:50 10° 112° (ESE) 3,909 - -58.3°
Sets 22:16:18 0° 120° (ESE) 4,879 - -59.0°
